STARLINK-33874, 63825

Orbit data source: Space-Track

STARLINK-33874, 63825 is a payload satellite owned by SpaceX/Seattle (US) in LEO that was launched on Sun, 04 May 2025 UTC via an FALCON 9 launch vehicle from the Air Force Eastern Test Range (AFETR). Payload-class satellites include a variety of spacecraft equipped with specific instruments for various scientific and technological missions. These include communications satellites like Starlink; space stations such as the ISS; scientific satellites like the Hubble; Earth observation satellites from companies like Planet Labs, Umbra, and HawkEye 360; GPS; miniature CubeSats for education and research; and military/defense satellites.

Loading next visibility...
Identifier
63825, 2025-092X
Orbit
LEO
Country
Flag of USUS
Related business
Manufacturer
SpaceX/Seattle
Mission
Operational Commercial Communications
Bus & Motor
STARLINK V2MO, Unknown motor
Mass
575 kg wet, ~530 kg dry
Launch date (UTC)
2025-05-04 (6 months ago)
Launch vehicle
FALCON 9
Launch site
Air Force Eastern Test Range (AFETR)
Object type
Payload
Rocket body
Debris
Shape & HBR
Box + 2 Pan, 17.7 m
Radar Cross Section
36.964 m², Large (>1 m²)

Expand to show TLE details & history
Last TLE update: 22 hours ago

TLE from 22 hours ago
0 STARLINK-33874
1 63825U 25092X   25301.41132540  .00034954  00000-0  12722-2 0  9994
2 63825  42.9977 199.6409 0002941 276.5011  83.5506 15.27616697 28434
Epoch: 2025-10-28T09:52Z
TLE epoch observation values (Epoch: 2025-10-28T09:52:18.514Z)
Latitude
-0°
Longitude
14.56455°
Altitude
482.488 km
Speed
7.626 km/s
True Right ascension
13h 18m 33s
True Declination
0° 00' 00"
Sunlit
Object was in daylight at epoch
Visualization orbit readout
Latitude
Unknown
Longitude
Unknown
Altitude
Unknown
Speed
Unknown
Apparent Right ascension
Unknown
Apparent Declination
Unknown
Sunlit
N/A
Visualization observer readout
Local Sidereal Time
03:43:56
Azimuth
Unknown
Elevation
Unknown
Doppler factor
Unknown
Orbital elements
Apogee altitude
486.903 km
Perigee altitude
482.866 km
Semi-major axis
6,863.022 km
Eccentricity
0.00029
Inclination
42.9977°
RAAN
199.6409°
Arg. of periapsis
276.5011°
True anomaly
83.58409°
Mean anomaly
83.5506°
Eccentric anomaly
83.56734°
Mean motion
3.81742 °/min
Orbital period
94.3 mins
BSTAR
0.0012722
Loading maneuver chart data...
Computing Atmospheric mass density...
Loading historical data...
Loading historical data...
Loading historical data...
Loading historical data...
Loading historical data...
Loading historical data...
Loading historical data...

Documentation

Showing up to 5 results
|